Location: Arboyeti
(42.1122°N, 44.6017°E)
Time: 21:22:22
(UTC+00:00)

SPOT 3 Rocket - Pass Details

Date: 19 April 2021
Orbit: 778 x 795 km, 98.7° (Epoch: 17 May)

Event Time Altitude Azimuth Distance (km) Brightness Sun altitude
Exits shadow 17:52:10 33° 177° (S) 1,301 4.3 -21.2°
Maximum altitude 17:54:32 76° 257° (WSW) 816 3.6 -21.5°
Drops below altitude 10° 17:59:45 10° 343° (NNW) 2,355 6.8 -22.3°
Sets 18:02:05 0° 345° (NNW) 3,285 7.7 -22.6°
